User: anonymous   Login
Location: Caltech
(34.1382°N, 118.1253°W)
Time: 09:28:32
(UTC-07:00)
Language:

Gbstr 26 Del rocket - Orbit

View from above orbital plane
View from above orbital plane
View from above satellite
View from above satellite

Ground track
Ground track

The orbit data is extracted from the following two-line orbital elements,

1 25876U 99041E   16146.86776467  .00000112  00000-0  59801-4 0  9991
2 25876  51.7672  44.6832 0533087 339.4970  18.5263 14.03817210860204
Epoch (UTC): 25 May 2016 20:49:34
Eccentricity: 0.0533087
inclination: 51.7672°
perigee height: 493 km
apogee height: 1267 km
right ascension of ascending node: 44.6832°
argument of perigee: 339.4970°
revolutions per day: 14.03817210
mean anomaly at epoch: 18.5263°
orbit number at epoch: 86020

The dashed part of the orbit path shows where the satellite is in the earth's shadow,  

DLR